{"data":{"norad_id":63934,"intl_designator":"2025-098J","name":"STARLINK-33895","alt_names":[],"object_type":"PAYLOAD","status":"ACTIVE","operator":null,"country":"US","launch_date":"2025-05-13","launch_site_code":"AFWTR","launch_vehicle":null,"mission":null,"orbit_class":"UNKNOWN","rcs_meters":null,"size_class":null,"mass_kg":null,"dimensions":null,"purposes":["comms"],"wikipedia_slug":null,"has_3d_model":false,"image_url":null,"decayed_at":null,"tle_current":{"epoch":"2026-09-20T22:25:50.098368Z","epoch_age_seconds":109576,"freshness":"FRESH","line1":"1 63934U 25098J   26263.93460762  .00012430  00000+0  43606-3 0  9996","line2":"2 63934  70.0017 139.5710 0002635 271.5617  88.5257 15.29586008 75880","mean_motion":15.29586008,"eccentricity":0.0002635,"inclination_deg":70.0017,"raan_deg":139.571,"arg_perigee_deg":271.5617,"mean_anomaly_deg":88.5257,"bstar":0.00043606,"rev_number":7588,"period_min":94.143120587437,"perigee_km":475.24261057759,"apogee_km":478.85529357434,"semimajor_km":6855.185952076,"source":"CELESTRAK","updated_at":"2026-09-21T09:00:35.150405Z"}}}